Home   Weather   Inverness   Past weeks

Flag for United Kingdom Past Weather in Inverness, Scotland, United Kingdom — Yesterday and Last 2 Weeks

Now
37 °F

Scattered showers. Broken clouds.


Feels Like: 25 °F
Forecast: 34 / 41 °F
Wind: 29 mph from North

Location: Inverness / Dalcross

Current Time: Apr 24, 2017 at 12:45:37 pm

Latest Report: Apr 24, 2017 at 12:20 pm


Visibility: 6 mi

Pressure: 29.86 "Hg

Humidity: 87%

Dew Point: 34 °F

Location of InvernessLocation

Past Weather in Inverness — Graph

°F

Inverness Temperature Yesterday

Maximum temperature yesterday: 54 °F (at 3:20 pm)
Minimum temperature yesterday: 39 °F (at 1:50 am)
Average temperature yesterday: 46 °F

High & Low Weather Summary for the Past Weeks

 TemperatureHumidityPressure
High59 °F (Apr 19, 2:50 pm)100% (Apr 18, 5:50 am)30.51 "Hg (Apr 18, 5:50 am)
Low25 °F (Apr 18, 12:50 am)43% (Apr 18, 2:20 pm)29.71 "Hg (Apr 15, 12:20 am)
Average45 °F77%30.13 "Hg
* Reported Apr 9 11:20 am — Apr 24 11:50 am, Inverness, Weather by CustomWeather, © 2017

Note: Actual official high and low records may vary slightly from our data, if they occured in-between our weather recording intervals... More about our weather records

Advertising

Inverness Weather History for the Previous 24 Hours

Scroll right to see more
 ConditionsComfort  
Time TempWeatherWind HumidityBarometerVisibility
11:50 am
Mon, Apr 24
37 °FScattered showers. Scattered clouds.23 mph93%29.86 "HgN/A
11:20 am41 °FScattered showers. Scattered clouds.13 mph81%29.83 "HgN/A
10:50 am41 °FScattered showers. Broken clouds.18 mph87%29.83 "HgN/A
10:20 am41 °FScattered showers. Broken clouds.24 mph87%29.80 "HgN/A
9:50 am39 °FSprinkles. Broken clouds.24 mph81%29.83 "HgN/A
9:20 am41 °FSprinkles. Scattered clouds.21 mph70%29.83 "HgN/A
8:50 am41 °FScattered showers. Scattered clouds.22 mph70%29.83 "HgN/A
8:20 am41 °FScattered showers. Passing clouds.14 mph76%29.89 "HgN/A
7:50 am37 °FScattered showers. Passing clouds.16 mph81%29.89 "HgN/A
7:20 am39 °FScattered showers. Passing clouds.17 mph75%29.89 "HgN/A
6:50 am37 °FPassing clouds.12 mph81%29.92 "HgN/A
6:20 am37 °FPassing clouds.14 mph81%29.92 "HgN/A
5:50 am37 °FChilly.10 mph87%29.92 "HgN/A
5:20 am39 °FPassing clouds.17 mph81%29.95 "HgN/A
4:50 am39 °FPassing clouds.13 mph87%29.95 "HgN/A
4:20 am39 °FChilly.14 mph87%29.95 "HgN/A
3:50 am41 °FQuite cool.10 mph81%29.95 "HgN/A
3:20 am41 °FPassing clouds.10 mph81%29.95 "HgN/A
2:50 am37 °FPassing clouds.8 mph87%29.95 "HgN/A
2:20 am39 °FPassing clouds.3 mph87%29.98 "HgN/A
1:50 am41 °FPassing clouds.9 mph81%29.98 "HgN/A
1:20 am41 °FPassing clouds.12 mph76%29.98 "HgN/A
12:50 am43 °FPassing clouds.12 mph71%29.98 "HgN/A
12:20 am43 °FPassing clouds.14 mph71%29.98 "HgN/A
11:50 pm
Sun, Apr 23
43 °FPassing clouds.17 mph81%29.95 "HgN/A
11:20 pm45 °FLight rain. Passing clouds.12 mph81%29.95 "HgN/A
10:50 pm45 °FPartly cloudy.16 mph81%29.95 "HgN/A
10:20 pm46 °FLight rain. Partly cloudy.18 mph87%29.92 "Hg6 mi
9:50 pm46 °FMixture of precip. Partly cloudy.20 mph87%29.92 "HgN/A
9:20 pm45 °FMixture of precip. Partly cloudy.21 mph93%29.92 "HgN/A
8:50 pm46 °FSprinkles. Partly cloudy.22 mph82%29.92 "HgN/A
8:20 pm48 °FSprinkles. Broken clouds.22 mph76%29.95 "HgN/A
7:50 pm48 °FSprinkles. Broken clouds.23 mph76%29.95 "HgN/A
7:20 pm48 °FSprinkles. Broken clouds.24 mph76%29.95 "HgN/A
6:50 pm50 °FScattered showers. Broken clouds.22 mph67%29.98 "HgN/A
6:20 pm50 °FSprinkles. Partly sunny.24 mph67%30.01 "HgN/A
5:50 pm50 °FPartly sunny.23 mph67%30.01 "HgN/A
5:20 pm50 °FPartly sunny.24 mph62%30.01 "HgN/A
4:50 pm50 °FScattered clouds.28 mph62%30.01 "HgN/A
4:20 pm52 °FScattered clouds.26 mph58%30.04 "HgN/A
3:50 pm52 °FScattered clouds.21 mph58%30.07 "HgN/A
3:20 pm54 °FScattered clouds.24 mph54%30.09 "HgN/A
2:50 pm50 °FScattered clouds.24 mph58%30.09 "HgN/A
2:20 pm50 °FScattered clouds.25 mph62%30.09 "HgN/A
1:50 pm52 °FPartly sunny.17 mph58%30.09 "HgN/A
1:20 pm50 °FPartly sunny.18 mph62%30.15 "HgN/A
12:50 pm50 °FPartly sunny.17 mph62%30.15 "HgN/A
12:20 pm50 °FPartly sunny.20 mph62%30.15 "HgN/A
Weather by CustomWeather, © 2017

See weather overviewHow to use our weather pages